Weather History for Shungnak AP, Shungnak, AK, AK

Change the Weather History Date:

Wednesday, December 11, 2013

  Actual Average (PAFM) Record (PAFM)
Temperature  
Mean Temperature -9 °F -  
Max Temperature -2 °F 0 °F 28 °F (2011)
Min Temperature -17 °F -5 °F -41 °F (1984)
Degree Days  
Heating Degree Days 74    
Moisture  
Dew Point -13 °F    
Average Humidity 81    
Maximum Humidity 87    
Minimum Humidity 75    
Precipitation  
Precipitation 0.00 in - - ()
Sea Level Pressure  
Sea Level Pressure 30.64 in    
Wind  
Wind Speed 5 mph (ESE)    
Max Wind Speed 12 mph    
Max Gust Speed -    
Visibility 10 miles    
Events      
Averages and records for this station are not official NWS values.
T = Trace of Precipitation, MM = Missing Value Source: NWS Daily Summary

Daily Weather History Graph

Daily Weather History Graph

Search for Another Location

Airport:

Trip Planner

Search our weather history database for the weather conditions in past years. The results will help you decide how hot, cold, wet, or windy it might be!

Date:

Astronomy

Dec. 11, 2013 Rise Set
Actual Time 12:14 PM AKST 2:29 PM AKST
Civil Twilight 10:22 AM AKST 4:21 PM AKST
Nautical Twilight 9:01 AM AKST 5:42 PM AKST
Astronomical Twilight 7:54 AM AKST 6:49 PM AKST
Moon 1:48 PM AKST (12/11) 3:58 AM AKST (12/11)
Length of Visible Light 5h 59m
Length of Day
2h 14m
Waxing Gibbous, 73% of the Moon is Illuminated
Dec 11
Waxing Gibbous
Dec 17
Full
Dec 25
Last Quarter
Jan 1
New
Jan 7
First Quarter

Hourly Weather History & Observations

Time (AKST) Temp. Windchill Dew Point Humidity Pressure Visibility Wind Dir Wind Speed Gust Speed Precip Events Conditions
12:57 AM -2.9 °F -13.3 °F -7.1 °F 82% 30.72 in 10.0 mi ESE 4.6 mph - N/A   Clear
1:57 AM -5.1 °F - -9.9 °F 80% 30.71 in 10.0 mi Calm Calm - N/A   Clear
2:57 AM -5.1 °F - -8.0 °F 87% 30.70 in 10.0 mi Calm Calm - N/A   Clear
3:57 AM -5.1 °F - -8.0 °F 87% 30.69 in 10.0 mi Calm Calm - N/A   Clear
4:57 AM -4.0 °F - -8.0 °F 83% 30.69 in 10.0 mi Calm Calm - N/A   Clear
5:57 AM -4.0 °F -16.3 °F -8.0 °F 83% 30.68 in 10.0 mi SE 5.8 mph - N/A   Clear
6:57 AM -5.1 °F -20.4 °F -9.0 °F 83% 30.67 in 10.0 mi ESE 8.1 mph - N/A   Clear
7:57 AM -5.1 °F -21.5 °F -9.9 °F 80% 30.66 in 10.0 mi ESE 9.2 mph - N/A   Clear
8:57 AM -8.0 °F -27.1 °F -11.9 °F 83% 30.65 in 10.0 mi SE 11.5 mph - N/A   Clear
9:57 AM -8.0 °F -26.1 °F -11.9 °F 83% 30.64 in 10.0 mi ESE 10.4 mph - N/A   Clear
10:57 AM -8.0 °F -26.1 °F -11.9 °F 83% 30.65 in 10.0 mi SE 10.4 mph - N/A   Clear
11:57 AM -7.1 °F -15.9 °F -11.9 °F 79% 30.66 in 10.0 mi ESE 3.5 mph - N/A   Clear
12:57 PM -8.0 °F -23.9 °F -11.9 °F 83% 30.64 in 10.0 mi East 8.1 mph - N/A   Clear
1:57 PM -9.9 °F -26.3 °F -14.1 °F 82% 30.64 in 10.0 mi ESE 8.1 mph - N/A   Clear
2:57 PM -11.0 °F -29.9 °F -15.0 °F 83% 30.64 in 10.0 mi East 10.4 mph - N/A   Clear
3:57 PM -11.0 °F -20.4 °F -16.1 °F 78% 30.63 in 10.0 mi East 3.5 mph - N/A   Clear
4:57 PM -11.9 °F -31.0 °F -16.1 °F 82% 30.62 in 10.0 mi ESE 10.4 mph - N/A   Clear
5:57 PM -11.9 °F -27.3 °F -17.0 °F 78% 30.61 in 10.0 mi SE 6.9 mph - N/A   Clear
6:57 PM -11.0 °F - -16.1 °F 78% 30.61 in 10.0 mi Calm Calm - N/A   Clear
7:57 PM -15.0 °F -32.4 °F -20.0 °F 78% 30.61 in 10.0 mi ESE 8.1 mph - N/A   Clear
8:57 PM -14.1 °F -31.3 °F -18.9 °F 79% 30.59 in 10.0 mi ESE 8.1 mph - N/A   Clear
9:57 PM -14.1 °F -29.9 °F -20.0 °F 75% 30.59 in 10.0 mi East 6.9 mph - N/A   Clear
10:57 PM -16.1 °F -33.7 °F -20.9 °F 79% 30.59 in 10.0 mi ESE 8.1 mph - N/A   Clear
11:57 PM -17.0 °F -29.7 °F -22.0 °F 78% 30.59 in 10.0 mi East 4.6 mph - N/A   Clear